Wind_Speed
31 32 33 35 36 36 37 37 38 39 39 39 39 40 40 41 41 41 41 42 42 43 43 43 44 44 45 45 44 45 45 45 44 44 45 44 44 44 44 44 44 44 44 44
32 32 32 33 34 34 35 37 38 38 39 40 40 40 40 41 41 42 42 42 43 43 44 44 45 45 46 46 46 46 47 47 46 46 47 47 46 46 45 45 45 45 45 45
31 30 30 31 32 33 34 35 36 38 39 40 42 42 41 41 42 41 41 42 43 44 45 46 46 46 47 47 47 47 48 48 48 48 48 48 48 47 47 47 46 46 46 47
28 28 29 30 31 32 33 34 35 36 38 39 41 43 40 40 41 40 40 41 41 43 44 45 45 45 46 47 47 48 48 49 49 49 50 50 50 49 49 49 49 49 49 49
28 28 29 29 30 32 33 33 35 36 38 39 39 42 41 40 40 39 39 40 40 42 43 43 44 44 45 46 47 48 49 50 50 50 50 51 52 52 52 51 51 51 51 51
28 29 29 29 30 31 33 34 35 37 38 40 39 41 41 39 39 39 39 39 40 41 42 42 43 43 44 45 46 47 48 49 50 51 52 52 52 53 53 53 53 53 53 53
27 28 28 29 30 31 32 34 35 36 37 39 38 39 39 38 38 38 38 39 39 40 41 41 42 42 43 44 45 46 47 48 49 50 51 52 52 53 54 54 54 55 54 54
28 28 28 29 30 32 32 33 34 35 36 36 35 37 37 36 37 37 38 38 39 40 40 41 41 42 43 44 45 46 47 48 49 50 51 52 52 53 54 55 55 55 56 56
29 30 30 30 31 32 32 32 33 35 37 38 37 37 37 36 36 37 38 39 39 40 41 41 41 42 43 43 44 45 47 48 49 49 50 52 53 54 54 55 56 56 56 57
29 31 31 31 31 32 32 33 33 34 36 38 38 36 36 36 37 38 38 39 39 40 40 41 41 42 43 43 44 46 47 48 49 49 49 51 51 52 54 54 55 55 56 57
30 32 32 32 32 31 32 32 32 33 35 38 39 37 36 37 37 38 39 39 39 40 40 41 42 42 43 43 44 45 46 48 49 49 50 50 51 52 52 53 54 55 55 56
31 32 33 33 32 31 32 32 32 34 35 37 39 39 37 38 39 40 41 41 40 41 41 41 42 42 43 44 44 45 46 47 48 49 50 50 51 52 53 54 54 55 55 56
32 33 34 34 33 33 32 32 33 34 35 36 38 39 38 39 41 41 42 42 41 41 41 41 42 43 44 44 45 45 46 47 47 48 49 50 51 52 53 53 54 56 56 57
34 34 34 34 34 34 33 33 33 34 35 36 36 37 37 38 40 41 41 40 40 40 40 40 41 42 42 43 44 44 45 45 46 47 48 49 50 51 52 53 53 54 55 56
35 35 34 34 34 34 34 34 34 35 36 38 37 37 37 38 39 40 40 40 40 40 39 39 40 41 41 42 42 43 43 44 45 46 47 48 49 50 51 52 52 53 54 55
35 36 35 34 34 35 35 35 35 35 36 38 38 38 36 38 39 39 40 40 41 40 39 39 40 40 41 41 42 42 43 43 44 45 46 47 48 49 50 50 51 52 52 53
35 36 37 36 36 37 37 35 36 36 36 37 38 36 37 37 38 39 40 40 40 40 40 39 40 40 41 41 42 42 43 43 44 44 45 46 47 48 50 50 51 52 52 52
37 37 38 39 39 39 37 37 37 37 36 37 38 38 38 38 38 38 39 39 40 40 40 40 39 40 40 41 41 42 42 43 43 45 45 46 46 47 48 49 50 50 51 51
37 38 39 40 41 41 38 38 37 38 37 37 38 39 39 39 39 39 39 39 39 39 39 40 40 40 41 41 41 42 42 43 44 45 45 46 46 46 47 48 49 49 50 50
37 38 39 40 41 41 39 38 39 40 40 38 39 39 39 40 40 38 38 39 39 39 39 40 41 42 42 42 43 42 42 43 43 44 44 45 46 46 47 47 47 48 49 51
37 38 39 39 40 40 39 39 40 41 41 40 40 40 40 40 40 39 39 39 39 39 40 40 41 41 41 42 42 42 43 43 43 44 44 45 45 45 46 47 47 48 49 50
38 38 39 39 40 40 40 40 40 40 40 40 40 40 41 41 41 40 40 40 40 40 40 40 40 40 40 41 41 41 42 43 43 44 44 43 43 43 44 45 46 47 48 49
38 39 39 39 39 40 40 40 40 40 40 40 41 41 41 41 41 41 41 40 40 40 40 40 40 40 40 40 40 41 41 42 43 43 43 42 42 42 43 43 44 45 46 47
38 39 40 40 39 40 40 40 40 40 40 41 41 41 41 41 41 41 41 41 40 40 40 40 39 39 39 39 40 40 41 42 42 42 42 42 42 43 43 43 43 43 44 44
39 40 40 40 40 41 40 41 41 41 41 41 41 41 42 42 42 41 41 41 41 41 40 40 39 39 39 39 39 40 40 40 40 40 41 41 42 42 43 43 43 43 43 44
39 40 41 41 41 41 41 41 41 42 42 42 43 43 43 43 42 42 42 41 41 41 40 40 40 40 39 39 39 39 39 39 38 38 38 39 40 41 41 42 42 42 42 43
Wind_Direction
279 277 276 275 273 272 272 272 272 272 271 270 268 267 266 266 265 265 265 263 261 261 262 262 262 261 261 260 259 258 259 259 260 259 259 260 260 260 260 259 258 258 258 259
281 280 280 277 275 274 273 273 273 272 271 270 269 268 267 267 267 266 266 264 262 261 261 261 262 261 261 261 259 258 258 259 260 260 260 260 260 259 259 259 259 258 258 258
284 284 282 278 274 272 272 274 274 274 273 271 271 269 268 268 268 267 267 266 265 263 262 261 261 262 261 260 260 259 259 259 259 260 260 260 260 260 260 259 259 259 259 259
286 285 283 280 276 274 274 273 274 274 275 273 273 273 270 270 270 269 269 269 268 266 264 263 262 262 262 261 260 259 259 259 259 259 259 259 259 259 259 258 258 258 259 260
290 287 285 283 282 279 277 277 275 275 276 275 275 276 274 272 272 272 272 271 270 267 265 264 263 262 262 261 260 259 259 259 259 259 258 258 258 258 258 259 259 259 259 259
291 289 287 287 286 285 283 280 280 279 279 278 279 279 278 276 275 274 273 271 271 270 267 266 265 264 263 263 261 260 259 259 259 259 259 258 258 258 258 258 258 259 259 259
293 292 291 289 288 288 287 286 285 285 283 282 281 281 281 280 279 277 275 273 272 271 270 268 267 266 265 264 262 260 259 259 259 258 258 258 258 258 258 258 258 259 259 259
299 297 295 293 292 291 291 289 287 286 286 285 284 282 283 282 280 279 277 275 274 273 272 271 269 267 267 265 264 262 260 260 259 259 258 258 257 258 258 258 258 258 258 258
301 299 297 295 295 294 293 290 288 287 286 285 285 284 283 283 282 280 280 278 277 275 273 272 271 270 268 266 265 263 262 261 260 260 259 258 258 258 258 258 258 258 259 259
300 299 298 297 296 294 293 292 290 288 287 287 286 286 286 285 284 283 282 281 279 277 275 274 273 271 268 267 266 264 263 262 261 260 261 260 259 259 259 258 258 259 259 259
299 300 300 299 298 296 294 292 290 288 287 287 288 287 288 288 287 286 284 282 281 279 277 276 274 271 270 268 267 266 265 264 263 262 262 262 261 261 260 260 259 259 259 259
299 300 301 301 298 296 293 292 290 288 288 287 287 288 287 288 288 287 285 284 283 281 280 277 275 272 271 270 269 268 267 266 265 264 263 263 263 263 262 261 260 260 260 259
300 300 301 301 299 297 294 293 291 289 287 287 287 290 289 287 287 287 287 286 283 282 281 279 276 274 272 271 270 269 268 268 267 266 265 264 264 264 264 263 262 262 262 261
299 299 300 300 299 298 296 295 292 291 289 289 289 289 289 288 286 287 288 287 285 283 282 280 277 275 274 272 271 270 269 269 268 267 266 265 264 264 264 263 264 264 263 262
299 299 299 298 297 295 295 293 293 292 291 290 291 289 289 288 287 287 286 287 287 286 284 282 280 276 275 273 272 272 271 271 269 268 268 267 266 266 265 264 264 265 264 263
299 299 299 298 297 295 293 293 293 292 291 292 291 290 291 289 288 288 288 288 287 286 285 283 281 279 276 274 274 274 273 272 272 270 269 268 267 266 266 265 264 265 265 265
298 299 299 299 297 295 294 296 295 293 292 291 291 292 291 291 290 290 289 288 288 286 285 284 282 280 278 276 276 275 275 274 273 272 271 270 268 267 266 266 266 265 266 266
299 299 299 300 298 296 299 296 295 294 294 293 293 293 293 293 292 291 290 289 288 286 285 283 283 281 280 278 277 276 275 274 274 273 272 271 270 269 268 268 267 266 266 266
298 299 300 300 299 299 299 299 297 296 295 295 294 294 293 293 292 291 290 289 288 287 286 285 284 284 282 280 279 278 276 275 274 274 273 272 272 271 269 269 268 267 267 266
298 299 299 300 300 301 301 299 298 297 296 296 295 294 293 293 292 292 291 290 289 288 288 287 286 285 283 282 280 279 278 277 276 276 275 274 273 272 271 271 269 268 267 267
298 298 299 299 299 300 301 300 298 297 298 297 295 294 294 294 294 293 292 291 290 290 289 288 287 286 285 284 282 280 280 278 277 276 276 275 274 273 273 271 270 268 268 268
297 298 299 300 300 301 302 301 299 298 297 296 296 295 295 295 295 293 292 292 291 290 289 289 288 287 286 285 284 283 281 280 278 277 276 275 275 274 274 272 271 270 269 269
297 298 299 299 299 299 300 300 299 298 297 297 296 296 296 295 295 293 292 291 291 290 289 289 289 288 287 286 286 285 283 282 280 278 276 275 274 274 274 273 272 271 271 270
297 297 297 297 298 298 299 299 298 297 296 296 296 296 295 295 295 294 293 292 292 291 290 289 289 288 287 287 286 286 285 284 282 280 277 275 274 274 274 273 273 272 272 272
297 296 296 296 297 297 298 298 297 297 297 296 295 295 295 295 295 295 295 294 293 292 290 288 288 288 288 288 287 287 286 284 282 280 278 275 274 274 274 274 274 274 273 273
296 296 296 297 297 297 298 297 297 297 297 296 294 294 294 294 295 295 295 293 293 292 290 289 289 289 288 289 288 287 287 286 284 281 279 277 276 275 275 274 274 274 273 273
Height
5696 5695 5694 5693 5692 5691 5691 5690 5690 5690 5689 5689 5688 5689 5691 5691 5692 5694 5694 5695 5696 5697 5698 5699 5700 5702 5703 5704 5706 5707 5709 5710 5711 5713 5714 5716 5718 5719 5720 5722 5724 5725 5726 5728
5688 5687 5686 5684 5683 5682 5681 5681 5680 5680 5679 5679 5678 5679 5681 5681 5682 5683 5683 5684 5684 5686 5687 5688 5689 5691 5692 5693 5695 5696 5698 5699 5700 5702 5703 5705 5707 5708 5710 5712 5713 5715 5716 5718
5679 5679 5677 5675 5674 5673 5672 5672 5671 5670 5669 5668 5668 5669 5671 5672 5671 5672 5672 5672 5673 5674 5675 5677 5678 5679 5680 5681 5682 5684 5686 5687 5689 5690 5692 5694 5695 5697 5699 5701 5702 5704 5705 5707
5672 5671 5669 5667 5666 5664 5664 5663 5662 5660 5659 5658 5659 5656 5661 5661 5660 5661 5662 5662 5662 5662 5663 5664 5666 5667 5668 5669 5670 5672 5673 5675 5677 5678 5680 5682 5683 5686 5687 5689 5690 5692 5694 5695
5665 5663 5661 5660 5659 5657 5656 5655 5653 5652 5650 5649 5649 5647 5649 5650 5650 5651 5652 5651 5651 5651 5651 5652 5654 5655 5655 5656 5658 5659 5660 5662 5664 5666 5667 5669 5671 5673 5674 5676 5678 5680 5682 5683
5659 5656 5654 5653 5651 5649 5647 5646 5645 5643 5641 5640 5641 5638 5638 5640 5640 5641 5641 5640 5640 5639 5639 5640 5641 5642 5643 5644 5645 5646 5648 5649 5651 5652 5654 5656 5657 5659 5661 5663 5665 5667 5668 5670
5652 5650 5647 5646 5644 5642 5640 5638 5636 5633 5631 5631 5631 5628 5630 5631 5630 5630 5630 5629 5629 5629 5628 5629 5629 5630 5631 5632 5633 5634 5635 5636 5637 5639 5640 5642 5643 5645 5647 5649 5651 5653 5655 5656
5645 5643 5641 5638 5637 5634 5632 5630 5629 5626 5623 5622 5621 5620 5623 5622 5620 5619 5618 5618 5617 5617 5617 5617 5618 5618 5619 5620 5620 5621 5622 5623 5624 5625 5626 5628 5629 5631 5633 5635 5637 5638 5640 5642
5638 5636 5634 5632 5629 5627 5624 5622 5621 5618 5614 5613 5612 5612 5612 5612 5610 5609 5607 5607 5606 5606 5606 5606 5605 5606 5607 5607 5607 5608 5609 5610 5611 5612 5613 5614 5615 5617 5618 5620 5622 5624 5626 5627
5632 5629 5627 5625 5622 5620 5617 5615 5612 5609 5606 5603 5603 5604 5603 5602 5600 5599 5597 5596 5595 5594 5594 5594 5593 5593 5594 5594 5595 5595 5596 5596 5597 5598 5599 5600 5601 5603 5604 5606 5608 5609 5611 5612
5625 5623 5620 5618 5615 5613 5610 5608 5604 5601 5598 5596 5594 5597 5594 5592 5590 5588 5587 5585 5584 5583 5582 5582 5581 5581 5581 5581 5582 5582 5582 5583 5584 5585 5585 5586 5587 5589 5590 5591 5593 5594 5595 5597
5618 5615 5612 5610 5607 5604 5602 5599 5597 5594 5591 5588 5585 5588 5586 5583 5580 5578 5576 5575 5573 5572 5571 5570 5569 5569 5569 5569 5569 5569 5569 5569 5570 5571 5572 5573 5573 5574 5575 5576 5577 5578 5580 5581
5611 5608 5605 5602 5601 5597 5594 5591 5588 5585 5582 5580 5577 5580 5575 5573 5570 5568 5566 5564 5562 5561 5559 5558 5557 5556 5556 5556 5556 5556 5556 5556 5556 5556 5557 5558 5559 5559 5560 5561 5562 5563 5564 5565
5602 5600 5598 5595 5591 5587 5585 5583 5580 5576 5573 5571 5570 5569 5567 5563 5560 5557 5555 5553 5551 5550 5548 5546 5545 5545 5544 5544 5543 5543 5542 5542 5542 5542 5543 5543 5544 5545 5545 5546 5546 5547 5548 5550
5594 5592 5589 5586 5583 5579 5577 5574 5572 5569 5566 5562 5561 5558 5557 5553 5550 5547 5545 5542 5540 5539 5537 5535 5534 5533 5532 5532 5531 5530 5529 5529 5529 5529 5529 5529 5529 5530 5530 5531 5531 5532 5532 5534
5586 5583 5580 5578 5575 5571 5568 5567 5564 5560 5557 5553 5550 5549 5547 5542 5539 5537 5535 5532 5530 5528 5527 5525 5523 5522 5521 5520 5519 5518 5517 5517 5516 5515 5515 5515 5515 5515 5515 5516 5516 5517 5517 5518
5578 5574 5571 5568 5566 5561 5559 5560 5555 5551 5548 5544 5541 5540 5536 5533 5530 5527 5524 5522 5519 5518 5516 5514 5512 5510 5509 5508 5507 5506 5505 5504 5503 5502 5502 5501 5501 5501 5501 5501 5502 5502 5503 5503
5570 5566 5561 5558 5556 5551 5554 5549 5545 5541 5538 5535 5531 5529 5526 5523 5520 5517 5513 5511 5509 5506 5504 5502 5500 5499 5497 5496 5494 5493 5492 5491 5490 5489 5489 5488 5488 5487 5487 5487 5487 5487 5488 5489
5561 5557 5552 5548 5543 5541 5542 5538 5534 5530 5528 5525 5521 5518 5515 5512 5509 5507 5503 5500 5497 5495 5492 5490 5489 5487 5485 5483 5482 5480 5479 5478 5477 5476 5475 5474 5474 5474 5473 5473 5473 5473 5473 5474
5551 5547 5544 5538 5533 5530 5532 5528 5523 5520 5517 5516 5511 5507 5504 5501 5498 5497 5492 5489 5486 5483 5481 5478 5476 5474 5472 5470 5469 5467 5466 5465 5464 5463 5462 5461 5460 5460 5459 5459 5458 5458 5459 5459
5542 5538 5534 5529 5524 5521 5521 5517 5513 5510 5508 5503 5500 5496 5493 5490 5487 5485 5481 5478 5475 5472 5469 5467 5464 5462 5459 5457 5456 5454 5453 5451 5450 5449 5448 5447 5446 5445 5445 5444 5444 5443 5444 5444
5532 5528 5525 5520 5515 5515 5511 5506 5503 5500 5496 5492 5489 5485 5482 5478 5475 5472 5469 5466 5463 5460 5457 5454 5452 5449 5447 5445 5443 5441 5439 5438 5437 5435 5434 5433 5432 5431 5430 5430 5429 5429 5429 5429
5523 5520 5515 5512 5510 5505 5500 5496 5492 5488 5485 5481 5478 5474 5470 5467 5463 5460 5457 5454 5451 5448 5445 5442 5440 5437 5435 5432 5430 5428 5426 5424 5423 5422 5420 5419 5418 5418 5416 5416 5415 5415 5414 5414
5514 5510 5505 5501 5499 5495 5490 5486 5482 5478 5474 5470 5466 5463 5459 5455 5452 5449 5446 5442 5439 5436 5433 5430 5428 5426 5423 5420 5418 5415 5413 5411 5409 5408 5407 5406 5405 5404 5403 5402 5402 5401 5401 5400
5504 5499 5495 5491 5489 5484 5480 5475 5471 5468 5463 5459 5456 5452 5448 5444 5441 5437 5434 5431 5428 5424 5421 5418 5416 5414 5411 5408 5406 5403 5401 5398 5396 5395 5393 5392 5392 5391 5390 5389 5388 5388 5387 5386
5494 5489 5484 5481 5478 5473 5470 5465 5461 5457 5453 5449 5445 5441 5437 5433 5429 5426 5422 5419 5415 5412 5409 5406 5404 5401 5399 5396 5393 5391 5388 5386 5384 5382 5381 5379 5378 5377 5376 5375 5374 5373 5373 5372